Weather History for Jacksonville, IL

Change the Weather History Date:

Saturday, January 25, 2014

  Actual Average (KSPI) Record (KSPI)
Temperature  
Mean Temperature 28 °F 27 °F  
Max Temperature 38 °F 35 °F 70 °F (1950)
Min Temperature 17 °F 19 °F -17 °F (1894)
Degree Days  
Heating Degree Days 38 38  
Month to date heating degree days 957  
Since 1 July heating degree days 3097  
Cooling Degree Days 0 0  
Month to date cooling degree days 0  
Year to date cooling degree days 0  
Moisture  
Dew Point 12 °F    
Average Humidity 52    
Maximum Humidity 90    
Minimum Humidity 28    
Precipitation  
Precipitation 0.00 in 0.06 in 0.77 in (1950)
Month to date precipitation 1.50  
Year to date precipitation 1.50  
Snow  
Snow 0.00 in 0.20 in 4.20 in (1895)
Month to date snowfall 5.1  
Since 1 July snowfall 11.3  
Snow Depth -    
Sea Level Pressure  
Sea Level Pressure 29.81 in    
Wind  
Wind Speed 17 mph (WNW)    
Max Wind Speed 31 mph    
Max Gust Speed 47 mph    
Visibility 10 miles    
Events Snow    
T = Trace of Precipitation, MM = Missing Value Source: NWS Daily Summary

Daily Weather History Graph

Daily Weather History Graph

Search for Another Location

Airport:

Trip Planner

Search our weather history database for the weather conditions in past years. The results will help you decide how hot, cold, wet, or windy it might be!

Date:

Astronomy

Jan. 25, 2014 Rise Set
Actual Time 7:14 AM CST 5:12 PM CST
Civil Twilight 6:45 AM CST 5:41 PM CST
Nautical Twilight 6:13 AM CST 6:14 PM CST
Astronomical Twilight 5:41 AM CST 6:45 PM CST
Moon 1:46 AM CST (1/25) 12:12 PM CST (1/25)
Length of Visible Light 10h 55m
Length of Day
9h 57m
Waning Crescent, 34% of the Moon is Illuminated
Jan 25
Waning Crescent
Jan 30
New
Feb 6
First Quarter
Feb 14
Full
Feb 22
Last Quarter

Hourly Weather History & Observations

Time (CST) Temp. Windchill Dew Point Humidity Pressure Visibility Wind Dir Wind Speed Gust Speed Precip Events Conditions
12:15 AM 36.5 °F 25.7 °F 18.3 °F 48% 29.64 in 10.0 mi SW 20.7 mph 33.4 mph N/A   Overcast
12:35 AM 36.1 °F 25.9 °F 20.8 °F 54% 29.62 in 10.0 mi SW 18.4 mph 25.3 mph N/A   Overcast
12:55 AM 36.1 °F 26.2 °F 20.3 °F 53% 29.61 in 10.0 mi SW 17.3 mph 21.9 mph N/A   Overcast
1:15 AM 36.9 °F 26.8 °F 19.4 °F 49% 29.60 in 10.0 mi SW 18.4 mph 24.2 mph N/A   Overcast
1:35 AM 36.7 °F 28.0 °F 19.0 °F 49% 29.60 in 10.0 mi WSW 13.8 mph 21.9 mph N/A   Overcast
1:55 AM 37.4 °F 28.2 °F 19.4 °F 48% 29.60 in 10.0 mi WSW 16.1 mph - N/A   Overcast
2:15 AM 37.9 °F 29.2 °F 20.7 °F 50% 29.60 in 10.0 mi WSW 15.0 mph - N/A   Overcast
2:35 AM 38.8 °F 28.8 °F 25.0 °F 58% 29.62 in 10.0 mi West 20.7 mph 27.6 mph N/A   Overcast
2:55 AM 37.6 °F 27.7 °F 27.5 °F 67% 29.63 in 10.0 mi West 18.4 mph 25.3 mph N/A   Overcast
3:15 AM 36.0 °F 26.3 °F 29.1 °F 76% 29.64 in 5.0 mi West 16.1 mph 23.0 mph N/A Snow Light Snow
3:35 AM 35.1 °F 26.9 °F 30.4 °F 83% 29.64 in 10.0 mi West 11.5 mph - N/A   Light Drizzle
3:55 AM 34.9 °F 26.2 °F 31.1 °F 86% 29.65 in 4.0 mi West 12.7 mph 17.3 mph N/A   Light Drizzle
4:15 AM 34.7 °F 25.9 °F 32.0 °F 90% 29.65 in 5.0 mi WNW 12.7 mph - N/A   Light Drizzle
4:35 AM 36.5 °F 27.8 °F 32.7 °F 86% 29.66 in 10.0 mi WNW 13.8 mph - N/A   Overcast
4:55 AM 36.9 °F 28.2 °F 31.5 °F 81% 29.65 in 10.0 mi WNW 13.8 mph - N/A   Overcast
5:15 AM 35.8 °F 26.1 °F 29.8 °F 79% 29.66 in 10.0 mi WNW 16.1 mph 20.7 mph N/A   Scattered Clouds
5:35 AM 35.8 °F 26.9 °F 28.6 °F 75% 29.67 in 10.0 mi WNW 13.8 mph - N/A   Clear
5:55 AM 35.6 °F 26.6 °F 28.2 °F 75% 29.68 in 10.0 mi WNW 13.8 mph 19.6 mph N/A   Mostly Cloudy
6:15 AM 34.9 °F 25.3 °F 27.9 °F 76% 29.69 in 10.0 mi WNW 15.0 mph 23.0 mph N/A   Mostly Cloudy
6:35 AM 34.5 °F 24.8 °F 28.0 °F 77% 29.70 in 10.0 mi West 15.0 mph 19.6 mph N/A   Mostly Cloudy
6:55 AM 33.4 °F 23.1 °F 27.1 °F 78% 29.70 in 10.0 mi West 16.1 mph 21.9 mph N/A   Scattered Clouds
7:15 AM 32.0 °F 23.0 °F 26.6 °F 80% 29.71 in 10.0 mi West 11.5 mph - N/A   Scattered Clouds
7:35 AM 34.2 °F 23.3 °F 27.5 °F 77% 29.72 in 10.0 mi West 18.4 mph - N/A   Mostly Cloudy
7:55 AM 34.7 °F 23.7 °F 28.2 °F 77% 29.72 in 10.0 mi West 19.6 mph 23.0 mph N/A   Overcast
8:15 AM 35.8 °F 23.0 °F 28.2 °F 74% 29.72 in 10.0 mi West 28.8 mph 35.7 mph N/A   Overcast
8:35 AM 36.1 °F 23.7 °F 22.6 °F 58% 29.74 in 10.0 mi WNW 27.6 mph 39.1 mph N/A   Overcast
8:55 AM 35.6 °F 23.7 °F 18.7 °F 50% 29.75 in 10.0 mi WNW 24.2 mph 38.0 mph N/A   Overcast
9:15 AM 34.2 °F 21.8 °F 14.7 °F 45% 29.76 in 10.0 mi WNW 24.2 mph 34.5 mph N/A   Mostly Cloudy
9:35 AM 33.3 °F 19.1 °F 8.4 °F 35% 29.79 in 10.0 mi WNW 31.1 mph 41.4 mph N/A   Scattered Clouds
9:55 AM 33.3 °F 19.8 °F 9.3 °F 37% 29.80 in 10.0 mi NW 27.6 mph 32.2 mph N/A   Clear
10:15 AM 32.2 °F 19.7 °F 7.2 °F 35% 29.81 in 10.0 mi NW 21.9 mph 34.5 mph N/A   Clear
10:35 AM 32.2 °F 19.1 °F 9.0 °F 38% 29.82 in 10.0 mi NW 24.2 mph 39.1 mph N/A   Clear
10:55 AM 32.0 °F 20.1 °F 7.3 °F 36% 29.83 in 10.0 mi NW 19.6 mph 31.1 mph N/A   Clear
11:15 AM 32.0 °F 20.5 °F 10.9 °F 42% 29.84 in 10.0 mi NW 18.4 mph 28.8 mph N/A   Clear
11:35 AM 31.5 °F 17.4 °F 3.4 °F 30% 29.85 in 10.0 mi NW 27.6 mph 47.2 mph N/A   Clear
11:55 AM 31.5 °F 17.4 °F 7.0 °F 36% 29.85 in 10.0 mi WNW 27.6 mph 32.2 mph N/A   Clear
12:15 PM 31.1 °F 18.0 °F 8.1 °F 38% 29.85 in 10.0 mi WNW 23.0 mph 31.1 mph N/A   Clear
12:35 PM 30.0 °F 15.7 °F 5.0 °F 35% 29.86 in 10.0 mi WNW 26.5 mph 44.9 mph N/A   Clear
12:55 PM 30.4 °F 17.3 °F 6.6 °F 37% 29.86 in 10.0 mi NW 21.9 mph 31.1 mph N/A   Clear
1:15 PM 29.1 °F 14.0 °F 3.4 °F 33% 29.87 in 10.0 mi WNW 28.8 mph 38.0 mph N/A   Clear
1:35 PM 29.3 °F 15.3 °F 2.8 °F 32% 29.87 in 10.0 mi NW 24.2 mph 32.2 mph N/A   Clear
1:55 PM 29.1 °F 14.5 °F -0.2 °F 28% 29.88 in 10.0 mi WNW 26.5 mph 35.7 mph N/A   Clear
2:15 PM 28.8 °F 14.3 °F 0.5 °F 30% 29.89 in 10.0 mi WNW 25.3 mph 34.5 mph N/A   Clear
2:35 PM 28.8 °F 14.9 °F 2.5 °F 33% 29.89 in 10.0 mi WNW 23.0 mph 28.8 mph N/A   Clear
2:55 PM 27.0 °F 13.2 °F -1.3 °F 30% 29.91 in 10.0 mi WNW 20.7 mph 34.5 mph N/A   Clear
3:15 PM 26.4 °F 13.2 °F -1.7 °F 30% 29.93 in 10.0 mi WNW 18.4 mph 29.9 mph N/A   Clear
3:35 PM 27.5 °F 14.6 °F 0.9 °F 32% 29.94 in 10.0 mi WNW 18.4 mph 23.0 mph N/A   Clear
3:55 PM 27.0 °F 12.5 °F -1.3 °F 30% 29.95 in 10.0 mi WNW 23.0 mph 28.8 mph N/A   Clear
4:15 PM 26.2 °F 14.2 °F -2.0 °F 29% 29.95 in 10.0 mi WNW 15.0 mph 23.0 mph N/A   Clear
4:35 PM 25.3 °F 12.6 °F -0.6 °F 33% 29.95 in 10.0 mi WNW 16.1 mph 20.7 mph N/A   Clear
4:55 PM 25.0 °F 10.2 °F -0.4 °F 33% 29.95 in 10.0 mi WNW 21.9 mph 27.6 mph N/A   Clear
5:15 PM 24.4 °F 13.0 °F -1.8 °F 32% 29.96 in 10.0 mi WNW 12.7 mph 20.7 mph N/A   Clear
5:35 PM 23.5 °F 13.0 °F -0.9 °F 35% 29.96 in 10.0 mi WNW 10.4 mph - N/A   Clear
5:55 PM 22.6 °F 12.6 °F -0.2 °F 37% 29.97 in 10.0 mi WNW 9.2 mph - N/A   Clear
6:15 PM 21.0 °F 13.4 °F 0.9 °F 42% 29.97 in 10.0 mi WNW 5.8 mph - N/A   Clear
6:35 PM 18.1 °F 12.9 °F 2.8 °F 51% 29.97 in 10.0 mi WNW 3.5 mph - N/A   Clear
6:55 PM 18.1 °F 12.9 °F 2.1 °F 50% 29.97 in 10.0 mi WNW 3.5 mph - N/A   Clear
7:15 PM 17.8 °F 12.5 °F 2.1 °F 50% 29.97 in 10.0 mi WNW 3.5 mph - N/A   Clear
7:35 PM 17.6 °F 12.3 °F 2.1 °F 51% 29.97 in 10.0 mi West 3.5 mph - N/A   Clear
7:55 PM 18.9 °F 12.1 °F 2.1 °F 48% 29.97 in 10.0 mi NW 4.6 mph - N/A   Clear
8:15 PM 17.4 °F 12.1 °F 1.9 °F 51% 29.96 in 10.0 mi West 3.5 mph - N/A   Clear
9:15 PM 18.1 °F - 8.4 °F 66% 29.95 in 10.0 mi Calm Calm - N/A   Clear
9:35 PM 19.2 °F - 9.5 °F 66% 29.93 in 10.0 mi Calm Calm - N/A   Clear
9:55 PM 19.4 °F 12.8 °F 9.0 °F 64% 29.91 in 10.0 mi SE 4.6 mph - N/A   Scattered Clouds
10:15 PM 20.1 °F 13.6 °F 9.1 °F 62% 29.91 in 10.0 mi SSE 4.6 mph - N/A   Scattered Clouds
10:35 PM 20.5 °F 14.0 °F 7.0 °F 56% 29.90 in 7.0 mi SE 4.6 mph - N/A   Scattered Clouds
10:55 PM 20.5 °F 14.0 °F 6.1 °F 54% 29.88 in 10.0 mi SSE 4.6 mph - N/A   Mostly Cloudy
11:15 PM 21.2 °F 14.9 °F 5.9 °F 52% 29.87 in 10.0 mi SSE 4.6 mph - N/A   Overcast
11:35 PM 21.9 °F 15.7 °F 5.0 °F 48% 29.88 in 10.0 mi SSE 4.6 mph - N/A   Overcast
11:55 PM 22.1 °F 13.7 °F 4.1 °F 46% 29.88 in 10.0 mi South 6.9 mph - N/A   Overcast